Regional Weather Roundup
Issued by NWS Goodland, KS

Home | Current Version | Previous Version | Graphics & Text | Print | Product List | Glossary On
Versions: 1 2 3 4 5 6 7 8 9 10 11 12 13 14 15 16 17 18 19 20 21 22 23 24 25 26 27 28 29 30 31 32 33 34 35 36 37 38 39 40 41 42 43 44 45 46 47 48 49 50
000
ASUS43 KGLD 241708
RWRGLD

GOODLAND FORECAST AREA HOURLY WEATHER ROUNDUP
NATIONAL WEATHER SERVICE GOODLAND KS
1000 AM MST MON NOV 24 2014

...OFFICIAL OBSERVATIONS...

CITY           SKY/WX    TMP DP  RH WIND       PRES   REMARKS
GOODLAND KS    MOSUNNY   45  15  30 NW26G36   29.92R
HILL CITY KS   SUNNY     44  17  33 NW21G28   29.90R
IMPERIAL NEB   CLOUDY    43  17  35 NW22G32   29.89R
MCCOOK NEB     SUNNY     43  16  33 NW22G28   29.89R
AKRON CO       PTSUNNY   37  16  42 NW21      29.91R
BURLINGTON CO  SUNNY     43  12  28 NW29G35   29.93R
LIMON CO       MOSUNNY   38  11  32 NW20G30   29.93R
$$

...UNOFFICIAL OBSERVATIONS...

CITY           SKY/WX    TMP DP  RH WIND       PRES   REMARKS
COLBY KS       SUNNY     46  19  34 NW23G32   29.91R
GOVE KS          N/A     46  32  58 MISG        N/A
NORTON KS      SUNNY     41  12  30 NW25G33   29.87R
SHARON SPRINGS   N/A     43  16  33 NW13G24     N/A
TRIBUNE KS     MOSUNNY   43  19  39 W17G24    29.98R
TRENTON NEB      N/A     43  32  65 NW20        N/A
YUMA CO          N/A     40  15  36 NW22        N/A
$$



USA.gov is the U.S. government's official web portal to all federal, state and local government web resources and services.